[[{"header":{"parameterUnit":"m.s-1","parameterCategory":1,"la1":30.2991,"la2":30.254,"lo1":-89.0895,"lo2":-89.0444,"dy":0.0017,"dx":0.0017,"nx":28,"ny":28,"refTime":"2025-01-08T03:00:00:Z","depth":0,"parameterNumber":2,"parameterNumberName":"U-component_of_WINDS"},"data":[0,0,0,0,0,0,0,0,0,0,0,0,0,0,0,0,0,0,0,0,0,0,0,0,0,0,0,0,0,0,0,0,0,0,0,0,0,0,0,0,0,0,0,0,0,0,0,0,0,0,0,0,0,0,0,0,0,0,-3.1427,-3.1428,0,-3.147,-3.147,-3.1471,-3.1372,-3.1369,-3.1366,-3.1363,-3.1409,-3.1413,-3.1417,0,0,0,0,0,0,0,0,0,0,0,0,0,-3.1263,-3.1266,-3.1427,-3.1428,-3.1428,-3.147,-3.147,-3.1471,-3.1373,-3.1369,-3.1365,-3.1361,-3.1407,-3.1412,-3.1417,0,0,0,0,0,0,0,0,0,0,0,0,0,-3.1323,-3.1268,-3.1427,-3.1384,-3.1381,-3.1469,-3.147,-3.1471,-3.1373,-3.1369,-3.1364,-3.136,-3.1406,-3.1412,-3.1418,-3.1551,0,0,-3.1437,-3.1439,0,0,0,0,0,0,0,0,-3.132,-3.1329,-3.139,-3.1387,-3.1384,-3.1411,-3.1429,-3.1498,-3.1375,-3.1376,-3.1363,-3.1357,-3.1413,-3.1418,-3.1437,-3.1553,-3.1555,-3.1437,-3.1441,-3.1444,-3.1445,0,0,0,0,0,0,0,-3.1316,-3.1327,-3.1444,-3.1391,-3.1387,-3.1363,-3.1367,-3.1442,-3.1421,-3.1376,-3.1369,-3.1375,-3.1411,-3.1431,-3.1437,-3.1555,-3.1437,-3.1443,-3.1446,-3.1449,-3.1783,-3.1788,0,0,0,0,0,0,-3.1317,-3.1324,-3.1443,-3.1445,-3.1339,-3.137,-3.1374,-3.1407,-3.142,-3.1417,-3.1379,-3.137,-3.1423,-3.143,-3.1439,-3.1595,-3.1444,-3.145,-3.1453,-3.1778,-3.1784,-3.179,0,0,0,0,0,0,-3.1313,-3.1328,-3.1441,-3.1383,-3.1395,-3.1378,-3.1416,-3.141,-3.143,-3.1422,-3.1418,-3.1404,-3.1419,-3.143,-3.1523,-3.1595,-3.1452,-3.1458,-3.1772,-3.178,-3.1787,-3.1909,0,0,0,0,0,0,-3.1309,-3.1328,-3.1377,-3.1384,-3.1399,-3.1525,-3.142,-3.1414,-3.1441,-3.143,-3.1444,-3.1442,-3.1416,-3.1515,-3.153,-3.1601,-3.1463,-3.1765,-3.1775,-3.1784,-3.1899,-3.192,-3.1938,0,0,0,0,0,-3.1304,-3.1411,-3.138,-3.1395,-3.146,-3.1529,-3.1537,-3.1505,-3.1447,-3.1498,-3.1492,-3.1442,-3.1585,-3.1525,-3.1541,-3.1616,-3.1761,-3.1772,-3.1784,-3.189,-3.1916,-3.1938,0,0,0,0,0,0,-3.1413,-3.1411,-3.1377,-3.1489,-3.151,-3.1512,-3.1575,-3.1534,-3.1572,-3.156,-3.1519,-3.1523,-3.1625,-3.163,-3.1563,-3.1745,-3.1663,-3.1678,-3.1738,-3.1763,-3.1783,-3.1779,-3.1468,0,0,0,0,0,-3.145,-3.1505,-3.1501,-3.16,-3.1612,-3.1592,-3.1621,-3.1594,-3.1614,-3.1623,-3.1624,-3.1646,-3.1696,-3.173,-3.1775,-3.1899,-3.1901,-3.1958,-3.1978,-3.1995,-3.2008,-3.2074,-3.21,-3.1828,-3.1827,-3.1827,0,0,-3.1527,-3.1533,-3.157,-3.1622,-3.1635,-3.1694,-3.16,-3.1666,-3.1709,-3.1633,-3.1721,-3.1723,-3.1745,-3.1855,-3.1903,-3.1862,-3.2084,-3.2009,-3.2022,-3.2027,-3.2089,-3.2115,-3.2138,-3.1835,-3.1834,-3.1833,0,0,-3.1698,-3.1708,-3.1792,-3.1807,-3.1827,-3.1813,-3.1834,-3.1842,-3.184,-3.1928,-3.1872,-3.1924,-3.201,-3.2028,-3.2049,-3.2228,-3.2182,-3.2244,-3.2348,-3.2413,-3.2434,-3.2453,-3.2517,-3.254,-3.2257,-3.2258,-3.2258,0,-3.1792,-3.1877,-3.184,-3.191,-3.1935,-3.1868,-3.1953,-3.197,-3.2005,-3.2024,-3.1977,-3.2084,-3.2095,-3.2207,-3.2251,-3.227,-3.2292,-3.2242,-3.2434,-3.2452,-3.2469,-3.253,-3.2554,-3.2265,-3.2264,-3.2263,-3.2263,0,-3.1991,-3.2052,-3.2117,-3.2152,-3.2184,-3.2262,-3.2237,-3.2274,-3.2245,-3.2237,-3.2327,-3.2337,-3.2384,-3.2408,-3.2381,-3.2518,-3.2492,-3.244,-3.2357,-3.2503,-3.2559,-3.2582,-3.2275,-3.2273,-3.2271,-3.2269,0,0,-3.2232,-3.2245,-3.227,-3.2285,-3.2303,-3.2349,-3.2424,-3.2469,-3.2502,-3.2528,-3.259,-3.2666,-3.2618,-3.2642,-3.2616,-3.2673,-3.2814,-3.2614,-3.2614,-3.2651,-3.2966,-3.3004,-3.3031,-3.2784,-3.2788,-3.2792,-3.2964,0,-3.24,-3.2527,-3.2497,-3.2623,-3.2679,-3.2617,-3.2682,-3.27,-3.2695,-3.2741,-3.2735,-3.2789,-3.2722,-3.2736,-3.279,-3.2785,-3.2876,-3.2773,-3.2842,-3.2845,-3.2838,-3.3061,-3.3101,-3.3263,-3.2985,-3.2989,-3.2992,0,-3.2614,-3.2648,-3.278,-3.2789,-3.2811,-3.287,-3.2909,-3.2955,-3.2975,-3.2967,-3.2994,-3.2957,-3.3031,-3.2948,-3.305,-3.2981,-3.3007,-3.301,-3.3015,-3.302,-3.2927,-3.3072,-3.3314,-3.3338,-3.3026,-3.3023,-3.3021,0,-3.2776,-3.2855,-3.2944,-3.2959,-3.2972,-3.3015,-3.3023,-3.3038,-3.3067,-3.3102,-3.312,-3.3163,-3.3187,-3.3221,-3.3198,-3.3139,-3.3305,-3.3219,-3.33,-3.3301,-3.3338,-3.3336,-3.3587,-3.3356,-3.3355,-3.3355,-3.3354,0,-3.2967,-3.305,-3.3017,-3.3072,-3.3163,-3.3128,-3.322,-3.322,-3.3235,-3.3289,-3.3238,-3.3291,-3.3256,-3.3306,-3.3288,-3.3376,-3.3387,-3.3383,-3.3377,-3.3387,-3.3388,-3.3404,-3.3392,-3.3361,-3.336,-3.3358,-3.3357,0,-3.3163,-3.3144,-3.3237,-3.3242,-3.3245,-3.3313,-3.3317,-3.3368,-3.3359,-3.3428,-3.3443,-3.3428,-3.3484,-3.3464,-3.3524,-3.3512,-3.3624,-3.3604,-3.3617,-3.3612,-3.3694,-3.3687,-3.3965,-3.4,-3.3746,-3.3749,-3.3751,0,-3.3286,-3.3349,-3.336,-3.3393,-3.3404,-3.3457,-3.3486,-3.3454,-3.3487,-3.3515,-3.3563,-3.3615,-3.3654,-3.3747,-3.3742,-3.3788,-3.3768,-3.3863,-3.3775,-3.3783,-3.377,-3.3766,-3.3772,-3.388,-3.3883,-3.3885,-3.3887,0,-3.3507,-3.3494,-3.3538,-3.3579,-3.3616,-3.3647,-3.3673,-3.3703,-3.3672,-3.3712,-3.3768,-3.3799,-3.386,-3.3912,-3.3953,-3.3962,-3.392,-3.3915,-3.3936,-3.3947,-3.3953,-3.3951,-3.3665,-3.3909,-3.3907,-3.3905,-3.3904,-3.3903,-3.367,-3.3723,-3.3739,-3.379,-3.3806,-3.3832,-3.3881,-3.3877,-3.3924,-3.397,-3.3949,-3.4014,-3.4034,-3.4085,-3.4099,-3.415,-3.4114,-3.4145,-3.4152,-3.4161,-3.4171,-3.3945,-3.4158,-3.4157,-3.4157,-3.4156,-3.4156,0,-3.3888,-3.3895,-3.3942,-3.3981,-3.4021,-3.3978,-3.4005,-3.4042,-3.41,-3.4121,-3.4161,-3.4226,-3.4276,-3.4276,-3.4323,-3.4364,-3.4346,-3.4378,-3.4374,-3.4377,-3.4201,-3.4178,-3.4391,-3.4391,-3.4391,-3.4391,-3.4391,-3.4391,-3.4006,-3.4093,-3.4083,-3.4177,-3.4184,-3.4248,-3.4267,-3.4291,-3.4308,-3.4383,-3.4424,-3.4423,-3.4436,-3.4484,-3.4528,-3.4527,-3.4546,-3.4585,-3.4577,-3.4413,-3.4389,-3.4367,-3.4345,-3.459,-3.459,-3.4748,-3.4749,-3.475]},{"header":{"parameterUnit":"m.s-1","parameterCategory":1,"la1":30.2991,"la2":30.254,"lo1":-89.0895,"lo2":-89.0444,"dy":0.0017,"dx":0.0017,"nx":28,"ny":28,"refTime":"2025-01-08T03:00:00:Z","depth":0,"parameterNumber":3,"parameterNumberName":"V-component_of_WINDS"},"data":[0,0,0,0,0,0,0,0,0,0,0,0,0,0,0,0,0,0,0,0,0,0,0,0,0,0,0,0,0,0,0,0,0,0,0,0,0,0,0,0,0,0,0,0,0,0,0,0,0,0,0,0,0,0,0,0,0,0,-1.7634,-1.7635,0,-1.7683,-1.7684,-1.7685,-1.7711,-1.7711,-1.7711,-1.7711,-1.7758,-1.7759,-1.776,0,0,0,0,0,0,0,0,0,0,0,0,0,-1.7558,-1.7559,-1.7634,-1.7635,-1.7635,-1.7683,-1.7684,-1.7685,-1.7711,-1.7711,-1.7711,-1.7711,-1.7758,-1.7759,-1.7761,0,0,0,0,0,0,0,0,0,0,0,0,0,-1.7597,-1.756,-1.7634,-1.7654,-1.7657,-1.7683,-1.7684,-1.7685,-1.7711,-1.7711,-1.7711,-1.7711,-1.7757,-1.7759,-1.7761,-1.777,0,0,-1.7766,-1.7767,0,0,0,0,0,0,0,0,-1.7595,-1.76,-1.7651,-1.7653,-1.7656,-1.7691,-1.7674,-1.7713,-1.7711,-1.769,-1.7711,-1.7711,-1.7736,-1.7739,-1.7748,-1.7772,-1.7774,-1.7766,-1.7767,-1.7768,-1.7769,0,0,0,0,0,0,0,-1.7592,-1.7598,-1.7653,-1.7651,-1.7654,-1.7659,-1.7665,-1.7682,-1.7712,-1.7692,-1.7694,-1.77,-1.7737,-1.7746,-1.7749,-1.7775,-1.7766,-1.7768,-1.7769,-1.777,-1.7807,-1.7807,0,0,0,0,0,0,-1.7587,-1.7596,-1.7652,-1.7655,-1.7625,-1.7661,-1.7667,-1.768,-1.7712,-1.7717,-1.77,-1.7701,-1.7743,-1.7747,-1.7751,-1.7763,-1.7768,-1.777,-1.7771,-1.7807,-1.7807,-1.7807,0,0,0,0,0,0,-1.7585,-1.7592,-1.765,-1.7626,-1.7634,-1.7662,-1.7676,-1.7681,-1.769,-1.7717,-1.7722,-1.7704,-1.7743,-1.7749,-1.7765,-1.7765,-1.7771,-1.7772,-1.7807,-1.7807,-1.7807,-1.7787,0,0,0,0,0,0,-1.7583,-1.7591,-1.7596,-1.7626,-1.7635,-1.7664,-1.7676,-1.7681,-1.7694,-1.7696,-1.7723,-1.7727,-1.7744,-1.7762,-1.7767,-1.7768,-1.7774,-1.7807,-1.7807,-1.7807,-1.7788,-1.7787,-1.7785,0,0,0,0,0,-1.758,-1.7588,-1.7596,-1.7603,-1.7642,-1.7664,-1.7669,-1.7689,-1.7693,-1.7698,-1.7715,-1.7727,-1.7764,-1.7764,-1.7769,-1.777,-1.7807,-1.7807,-1.7807,-1.7789,-1.7787,-1.7785,0,0,0,0,0,0,-1.7556,-1.7592,-1.7602,-1.762,-1.7639,-1.7669,-1.7675,-1.7687,-1.7704,-1.7705,-1.7728,-1.7734,-1.7747,-1.7761,-1.7759,-1.778,-1.7787,-1.7788,-1.7771,-1.777,-1.7768,-1.7765,-1.7775,0,0,0,0,0,-1.7553,-1.7569,-1.76,-1.7612,-1.7622,-1.7646,-1.7657,-1.7671,-1.7691,-1.7699,-1.7717,-1.7735,-1.7751,-1.7761,-1.7777,-1.779,-1.7796,-1.7793,-1.7792,-1.7791,-1.7791,-1.7798,-1.7797,-1.7806,-1.7806,-1.7806,0,0,-1.7547,-1.7568,-1.7577,-1.7608,-1.7625,-1.764,-1.7653,-1.7669,-1.768,-1.7701,-1.7718,-1.7731,-1.7753,-1.7767,-1.7774,-1.7778,-1.779,-1.7791,-1.7789,-1.7791,-1.7797,-1.7797,-1.7796,-1.7806,-1.7806,-1.7806,0,0,-1.7543,-1.7561,-1.7574,-1.759,-1.7615,-1.7631,-1.7634,-1.7662,-1.7672,-1.769,-1.7705,-1.7718,-1.7745,-1.776,-1.777,-1.777,-1.7781,-1.7775,-1.7768,-1.7774,-1.7773,-1.7772,-1.7772,-1.7771,-1.7775,-1.7775,-1.7775,0,-1.7531,-1.7556,-1.7578,-1.7593,-1.7605,-1.7626,-1.7638,-1.7652,-1.768,-1.7687,-1.7692,-1.7726,-1.7742,-1.7759,-1.7759,-1.7768,-1.777,-1.7772,-1.7772,-1.7771,-1.7771,-1.7771,-1.777,-1.7774,-1.7774,-1.7774,-1.7775,0,-1.754,-1.7557,-1.7564,-1.7592,-1.7605,-1.7618,-1.764,-1.7651,-1.7663,-1.7678,-1.7694,-1.7714,-1.7734,-1.7739,-1.7751,-1.7758,-1.776,-1.7767,-1.7775,-1.7769,-1.7769,-1.7769,-1.7773,-1.7773,-1.7773,-1.7774,0,0,-1.7524,-1.7563,-1.7565,-1.7578,-1.7606,-1.7619,-1.7632,-1.7652,-1.766,-1.7679,-1.7689,-1.7711,-1.7719,-1.7731,-1.7744,-1.7749,-1.7747,-1.7756,-1.7757,-1.7753,-1.7755,-1.7749,-1.7749,-1.7754,-1.7754,-1.7755,-1.7753,0,-1.7524,-1.755,-1.7569,-1.7588,-1.7602,-1.7621,-1.7632,-1.765,-1.7664,-1.7678,-1.7693,-1.7708,-1.7717,-1.7724,-1.773,-1.7746,-1.7748,-1.7746,-1.7763,-1.7764,-1.7758,-1.7749,-1.7743,-1.774,-1.7753,-1.7753,-1.7753,0,-1.7528,-1.7546,-1.7566,-1.7592,-1.7599,-1.7609,-1.7629,-1.7642,-1.7661,-1.7671,-1.7684,-1.7698,-1.7711,-1.7717,-1.7734,-1.7733,-1.7741,-1.7749,-1.775,-1.7752,-1.7758,-1.775,-1.774,-1.774,-1.7754,-1.7754,-1.7753,0,-1.7513,-1.7543,-1.7558,-1.7568,-1.7599,-1.7605,-1.7618,-1.7638,-1.7649,-1.7665,-1.7672,-1.769,-1.7699,-1.7712,-1.7729,-1.7732,-1.7745,-1.7752,-1.7752,-1.7751,-1.7754,-1.7754,-1.7745,-1.7759,-1.7759,-1.7759,-1.7759,0,-1.7511,-1.7522,-1.7552,-1.7561,-1.7574,-1.7595,-1.7607,-1.7621,-1.7638,-1.7649,-1.7666,-1.7676,-1.7699,-1.7711,-1.7724,-1.7736,-1.774,-1.7748,-1.7751,-1.7746,-1.7745,-1.7752,-1.7752,-1.7759,-1.7759,-1.7759,-1.7759,0,-1.7497,-1.7518,-1.7536,-1.7563,-1.757,-1.7578,-1.7601,-1.761,-1.7624,-1.7638,-1.7643,-1.7666,-1.7681,-1.7699,-1.772,-1.7729,-1.7739,-1.7745,-1.7733,-1.7735,-1.7734,-1.7734,-1.7729,-1.7729,-1.7743,-1.7743,-1.7743,0,-1.7494,-1.7504,-1.7532,-1.7541,-1.7554,-1.7569,-1.758,-1.76,-1.7611,-1.7633,-1.7639,-1.7656,-1.767,-1.7693,-1.7711,-1.7726,-1.7732,-1.7729,-1.7734,-1.7729,-1.7731,-1.773,-1.7731,-1.7728,-1.7727,-1.7727,-1.7727,0,-1.7488,-1.7497,-1.7513,-1.7532,-1.7545,-1.7561,-1.7577,-1.7583,-1.7607,-1.7618,-1.7634,-1.7645,-1.7666,-1.7682,-1.77,-1.7712,-1.7723,-1.7725,-1.7726,-1.7721,-1.7714,-1.7717,-1.7729,-1.7725,-1.7725,-1.7726,-1.7726,-1.7726,-1.7479,-1.7488,-1.7509,-1.7526,-1.754,-1.7555,-1.7564,-1.758,-1.7594,-1.7614,-1.7625,-1.764,-1.7658,-1.7683,-1.7694,-1.7706,-1.771,-1.7711,-1.7711,-1.7711,-1.771,-1.7712,-1.7709,-1.7709,-1.7709,-1.7709,-1.7709,0,-1.7473,-1.7487,-1.7502,-1.7525,-1.7538,-1.7548,-1.7566,-1.7575,-1.7589,-1.7606,-1.7619,-1.7637,-1.7652,-1.767,-1.7686,-1.7692,-1.7697,-1.7695,-1.7695,-1.7697,-1.7705,-1.7703,-1.7691,-1.7691,-1.7691,-1.7691,-1.7691,-1.7691,-1.7471,-1.7486,-1.7497,-1.7519,-1.7533,-1.7549,-1.7558,-1.7571,-1.7584,-1.7604,-1.7616,-1.7629,-1.7645,-1.7662,-1.7676,-1.7681,-1.7685,-1.7682,-1.7688,-1.7695,-1.7697,-1.7698,-1.7696,-1.7683,-1.7683,-1.7679,-1.7679,-1.7679]}]]